Flag for Tunisia Weather past 2 weeks in Sfax, Tunisia

Now
68 °F

Clear.


Feels Like: 68 °F
Forecast: 61 / 81 °F
Wind: 8 mph from Southeast

Location: Sfax El-Maou

Current Time: Apr 18, 2015 at 6:05:18 PM

Latest Report: Apr 18, 2015 at 5:00 PM


Visibility: 5 mi

Pressure: 29.92 "Hg

Humidity: 69%

Dew point: 57 °F

Location of SfaxLocation

Historic Weather in Sfax — Graph

°F

Sfax temperature yesterday

Maximum temperature yesterday: 81 °F (at 2:00 PM)
Minimum temperature yesterday: 55 °F (at 5:00 AM)
Average temperature yesterday: 71 °F

Past Weeks' High & Low Weather Summary

 TemperatureHumidityPressure
High81 °F (Apr 17, 2:00 PM)100% (Apr 15, 8:00 AM)30.42 "Hg (Apr 15, 8:00 AM)
Low45 °F (Apr 8, 5:00 AM)26% (Apr 17, 2:00 PM)29.77 "Hg (Apr 5, 6:00 AM)
Average61 °F61%30.17 "Hg
* Reported Apr 3 5:00 PM — Apr 18 5:00 PM, Sfax, Weather by CustomWeather, © 2015

Note: Actual official high and low records may vary slightly from our data, if they occured in-between our weather recording intervals... More about our weather records

Advertising

Sfax weather history for previous 24 hours

 ConditionsComfort  
Time TempWeatherWind HumidityBarometerVisibility
5:00 PM
Sat, Apr 18
68 °FClear.8 mph69%29.92 "Hg5 mi
4:00 PM70 °FClear.12 mph60%29.92 "Hg5 mi
3:00 PM72 °FClear.9 mph53%29.95 "Hg5 mi
2:00 PM73 °FClear.12 mph33%29.95 "Hg5 mi
1:00 PM73 °FClear.12 mph47%29.98 "Hg5 mi
12:00 PM73 °FPassing clouds.7 mph47%30.01 "HgN/A
11:00 AM75 °FPassing clouds.7 mph36%30.01 "HgN/A
10:00 AM73 °FPassing clouds.9 mph38%30.04 "HgN/A
9:00 AM68 °FScattered clouds.10 mph49%30.01 "HgN/A
8:00 AM63 °FScattered clouds.6 mph68%30.04 "HgN/A
7:00 AM59 °FScattered clouds.7 mph77%30.01 "HgN/A
6:00 AM59 °FScattered clouds.6 mph72%30.01 "HgN/A
5:00 AM61 °FPassing clouds.9 mph68%30.01 "HgN/A
4:00 AM61 °FPassing clouds.10 mph68%29.98 "HgN/A
3:00 AM61 °FPassing clouds.12 mph68%30.01 "HgN/A
2:00 AM63 °FPassing clouds.14 mph68%29.98 "HgN/A
1:00 AM64 °FPassing clouds.12 mph64%30.01 "HgN/A
12:00 AM64 °FPassing clouds.12 mph60%30.01 "HgN/A
10:00 PM
Fri, Apr 17
68 °FPassing clouds.13 mph56%30.01 "HgN/A
9:00 PM72 °FPassing clouds.5 mph44%29.98 "HgN/A
8:00 PM73 °FPassing clouds.6 mph41%29.98 "HgN/A
7:00 PM75 °FPassing clouds.6 mph31%29.95 "HgN/A
6:00 PM79 °FPassing clouds.5 mph30%29.95 "HgN/A
Weather by CustomWeather, © 2015

See weather overviewHow to use our weather pages